Wind_Speed
20 21 22 22 23 24 25 26 26 27 28 28 29 30 31 31 32 33 33 34 34 35 35 36 37 37 38 38 38 38 38 39 39 39 40 40 40 41 41 41 41 40 40
21 22 23 23 24 25 26 26 27 27 28 29 30 31 32 32 33 33 34 34 35 35 36 37 37 38 38 39 38 39 39 39 39 40 40 40 40 40 40 40 40 40 41
23 23 24 24 25 26 27 27 28 28 29 30 31 32 32 33 34 34 35 35 36 36 36 37 37 38 39 39 38 39 39 39 39 39 39 40 40 40 40 40 40 40 40
24 24 25 25 26 27 27 28 29 29 30 31 32 33 33 34 35 35 35 36 36 37 37 37 38 39 39 39 39 39 39 39 39 39 39 39 39 39 39 39 39 40 40
25 26 26 27 27 28 29 29 30 30 31 32 33 33 34 35 35 35 36 36 37 37 38 38 39 39 39 39 39 39 39 39 39 39 39 39 39 39 39 39 40 40 40
26 27 27 28 29 29 30 31 31 32 32 33 33 34 35 35 35 36 36 37 38 38 38 39 39 40 40 40 40 39 39 39 39 39 40 40 40 40 40 40 40 40 41
28 28 29 29 30 31 31 32 32 33 33 34 34 35 35 36 36 36 37 38 38 38 39 39 40 40 40 40 40 40 40 40 40 40 40 41 41 41 41 41 41 42 42
29 29 30 31 31 32 32 33 33 33 34 34 35 36 36 36 36 37 38 38 38 39 40 40 41 41 41 41 41 41 41 41 41 42 42 42 42 43 43 43 43 44 45
31 31 32 32 33 33 33 34 34 34 34 35 35 36 36 36 37 38 38 39 39 40 41 41 41 41 42 41 42 42 42 42 43 43 43 44 44 44 45 45 46 47 48
32 33 33 33 34 34 34 34 35 35 35 35 36 36 37 37 37 38 38 39 40 41 41 42 42 42 42 42 43 43 43 44 44 45 45 46 46 46 47 48 49 50 51
34 34 34 34 34 35 35 35 36 36 36 36 36 37 37 38 38 39 39 40 41 42 42 43 43 43 43 44 44 44 45 45 46 47 47 48 48 49 50 51 52 53 54
35 35 35 35 35 35 36 36 36 36 36 37 37 37 37 38 39 39 40 40 41 42 43 44 44 44 45 45 45 46 46 47 48 49 49 50 51 52 53 54 55 57 58
35 36 35 35 35 36 36 37 36 36 36 37 37 37 38 39 40 40 41 42 43 43 44 44 44 45 46 47 48 48 48 49 50 51 52 53 55 56 56 57 59 60 61
37 37 36 36 36 36 36 37 36 36 37 37 37 38 39 40 40 41 42 43 44 44 44 45 45 47 48 49 50 50 52 53 54 55 56 57 58 58 59 61 62 64 65
37 37 36 36 36 36 36 37 36 36 37 37 38 39 39 40 41 41 43 44 45 45 45 46 47 49 51 51 52 54 55 56 57 57 58 59 60 61 63 64 66 67 67
37 37 37 36 36 36 37 37 37 37 37 38 38 39 40 41 41 42 43 44 45 46 47 48 49 51 52 54 55 56 57 58 58 59 60 61 63 64 65 67 67 67 67
38 37 37 36 36 36 37 36 37 37 38 38 39 40 41 41 42 43 44 45 46 47 48 49 51 53 54 55 56 57 58 59 60 61 62 64 65 66 67 67 66 66 66
38 37 36 36 36 36 37 37 37 38 38 39 39 40 41 41 42 44 45 46 47 48 50 51 53 54 55 57 58 59 60 61 62 63 64 65 66 67 67 66 66 66 65
37 36 36 36 36 37 37 37 37 38 39 39 39 40 41 42 43 44 45 46 48 50 52 53 54 56 57 59 60 61 62 63 64 65 65 65 66 66 65 65 66 65 65
36 36 36 36 36 36 37 37 37 38 38 38 39 40 41 42 43 44 46 47 49 51 53 54 56 57 59 61 62 63 63 64 64 64 64 65 65 65 65 65 65 64 63
36 36 35 36 36 36 37 37 37 37 38 38 39 40 41 42 43 45 47 49 51 53 54 56 57 59 61 62 63 63 64 64 63 64 64 64 64 65 65 64 64 62 59
35 35 35 35 35 36 36 36 36 37 37 38 39 40 41 43 44 46 48 50 52 54 56 57 59 60 62 63 63 63 64 63 62 62 62 62 64 64 63 63 61 58 55
34 34 34 35 36 36 36 36 36 36 37 38 40 41 42 43 45 47 49 51 53 55 57 59 60 61 62 62 62 62 61 61 61 61 62 62 62 62 61 59 56 53 50
34 34 35 35 35 35 35 35 36 37 38 39 40 41 43 44 46 48 50 52 54 56 58 59 60 61 61 61 61 60 60 60 61 62 62 62 61 60 57 55 51 49 46
33 34 34 34 35 35 35 35 36 37 37 39 40 42 43 44 47 49 50 52 55 57 58 58 58 59 59 59 60 60 60 61 62 62 62 61 58 55 53 50 48 44 41
32 33 33 33 34 34 34 35 35 36 38 39 40 42 43 45 47 49 51 53 55 56 56 56 57 58 58 58 59 61 61 61 61 60 59 56 53 50 47 46 43 39 36
Wind_Direction
273 277 280 283 287 289 291 293 295 296 298 300 301 302 303 303 304 305 305 305 304 304 304 304 304 303 302 302 301 300 299 298 296 295 294 293 291 290 290 289 287 285 284
274 278 281 285 288 289 291 293 295 296 298 300 302 303 303 304 305 306 305 305 305 305 304 304 304 304 303 303 301 300 299 298 298 297 296 294 293 292 291 290 288 287 285
275 279 283 286 288 289 291 293 296 297 299 300 302 303 303 304 305 305 305 306 305 305 305 305 305 304 304 303 302 301 300 299 299 297 296 295 294 293 292 291 289 288 286
277 280 283 286 287 289 291 294 296 298 299 300 302 303 303 304 305 305 305 306 305 305 305 305 305 305 304 303 303 302 301 300 299 298 297 296 295 294 293 292 291 289 287
277 280 283 285 287 289 291 294 296 297 298 300 301 302 303 303 304 304 305 305 305 305 305 305 305 305 304 303 303 302 301 300 299 298 298 297 296 295 294 293 292 290 289
277 279 282 284 286 289 291 293 295 297 298 299 301 301 302 302 303 304 304 305 304 305 305 305 305 305 304 303 303 302 301 301 300 299 298 297 297 296 295 294 293 292 290
276 279 281 283 286 289 291 293 295 296 297 298 300 301 301 302 302 303 304 304 305 305 306 306 306 305 305 304 303 302 302 301 300 299 299 298 297 296 295 294 293 292 290
276 278 280 283 285 288 290 292 294 295 296 297 299 300 301 302 302 303 304 304 305 306 306 306 305 305 305 304 303 303 302 301 300 300 299 299 298 296 296 295 294 292 291
275 278 280 282 285 287 289 291 293 294 295 297 298 300 300 301 301 303 303 304 305 305 305 305 305 305 305 304 304 303 303 302 301 300 300 299 298 297 296 295 294 293 292
275 277 279 281 284 286 288 290 292 293 295 296 298 299 300 301 301 302 303 303 304 305 305 305 305 305 305 305 304 304 303 303 302 301 300 299 298 297 297 296 294 293 292
274 276 278 281 283 285 287 289 291 292 294 295 297 298 299 300 301 302 303 304 304 305 305 306 305 306 306 306 305 305 304 303 302 302 301 300 299 298 297 296 295 294 292
273 275 277 280 282 284 286 288 290 291 292 295 296 297 298 299 301 301 302 303 304 305 305 305 306 306 306 307 306 306 305 304 303 302 301 300 299 298 297 296 295 294 293
272 274 276 279 281 283 285 287 289 290 292 295 296 297 298 299 300 301 302 303 304 305 305 305 305 306 306 306 306 306 305 304 303 302 301 300 299 299 298 297 296 295 294
271 273 275 278 280 282 284 286 288 290 292 294 295 296 298 299 299 300 301 303 304 305 306 306 306 306 306 307 307 306 305 305 304 303 302 301 300 300 299 298 297 296 295
270 272 275 277 279 281 283 285 287 289 291 293 294 295 296 298 298 299 301 303 304 305 306 306 306 306 307 307 306 306 306 305 304 303 303 302 301 301 300 299 299 298 296
269 271 274 276 279 280 282 285 287 289 290 292 293 294 296 297 298 300 301 302 303 305 306 306 306 306 306 306 306 306 306 306 305 303 303 302 302 301 301 301 300 299 297
268 270 273 276 278 280 282 284 286 288 290 291 293 294 296 297 298 300 301 302 303 304 305 306 306 307 307 307 307 307 307 306 305 304 304 303 303 303 303 302 301 300 299
267 270 273 275 278 280 282 284 286 288 289 291 292 294 296 296 298 300 301 303 304 305 306 306 307 307 308 308 308 308 307 306 306 305 305 304 304 304 304 303 302 302 301
267 270 273 275 277 279 281 283 285 287 289 290 291 293 295 296 298 300 302 303 304 305 306 307 307 308 308 308 308 308 308 307 307 306 306 306 306 306 305 304 304 303 302
267 270 272 274 276 278 280 283 285 287 288 289 291 293 295 297 299 301 303 303 304 305 306 307 308 308 308 308 309 308 308 308 307 308 308 308 308 307 306 306 305 305 303
267 269 271 273 276 278 281 283 285 286 288 289 291 294 296 297 300 302 303 304 305 306 306 307 308 308 309 309 309 309 309 309 309 309 309 309 308 308 307 307 307 306 305
266 268 270 273 275 278 280 282 284 285 287 289 291 294 296 298 300 302 304 305 306 307 307 308 308 309 309 310 310 311 311 311 310 310 310 310 309 309 309 308 308 308 306
266 268 270 273 275 277 280 282 284 285 287 289 291 294 297 299 301 303 305 305 306 308 308 309 309 309 310 311 312 312 313 313 313 312 312 312 311 311 311 311 311 310 309
266 268 271 273 275 278 280 282 284 285 287 290 293 295 298 300 303 304 305 306 308 308 309 309 309 311 312 312 313 314 314 314 314 313 313 313 313 313 312 312 312 312 310
266 268 271 273 275 278 280 282 284 286 288 291 294 297 299 301 303 304 306 307 308 309 309 310 311 312 313 313 314 315 315 315 315 314 314 314 314 314 314 314 314 313 311
267 269 272 274 276 278 280 282 285 287 290 293 296 298 301 303 304 305 307 308 309 310 310 311 312 313 314 314 315 315 316 316 316 316 316 316 316 316 316 316 316 315 313
Height
5840 5840 5839 5838 5837 5835 5834 5832 5830 5828 5826 5824 5821 5819 5816 5813 5810 5807 5804 5801 5797 5794 5791 5787 5784 5780 5776 5772 5769 5765 5762 5758 5755 5752 5748 5745 5742 5739 5737 5734 5732 5729 5727
5835 5835 5834 5833 5832 5830 5829 5827 5825 5823 5821 5818 5816 5813 5810 5807 5804 5801 5798 5794 5791 5787 5784 5780 5777 5773 5769 5765 5761 5757 5754 5750 5747 5743 5740 5737 5733 5730 5728 5725 5722 5720 5718
5830 5830 5829 5828 5826 5825 5823 5821 5819 5817 5815 5812 5810 5807 5804 5801 5798 5795 5791 5788 5784 5781 5777 5773 5769 5766 5762 5758 5754 5750 5746 5742 5739 5735 5732 5728 5725 5722 5719 5716 5713 5711 5708
5825 5824 5823 5822 5821 5819 5817 5816 5814 5812 5809 5807 5804 5801 5798 5795 5792 5788 5785 5781 5777 5774 5770 5766 5762 5758 5754 5750 5746 5742 5738 5735 5731 5727 5723 5720 5716 5713 5710 5707 5704 5701 5699
5819 5818 5817 5816 5815 5813 5812 5810 5808 5806 5803 5801 5798 5795 5792 5788 5785 5782 5778 5774 5771 5767 5763 5759 5755 5751 5747 5742 5738 5734 5731 5727 5723 5719 5715 5712 5708 5705 5701 5698 5695 5692 5690
5813 5812 5811 5810 5809 5807 5806 5804 5802 5799 5797 5794 5791 5788 5785 5782 5778 5775 5771 5768 5764 5760 5756 5752 5748 5743 5739 5735 5730 5726 5722 5718 5714 5711 5707 5703 5699 5696 5692 5689 5686 5683 5680
5807 5806 5805 5804 5803 5801 5799 5797 5795 5793 5790 5787 5785 5782 5778 5775 5772 5768 5764 5761 5757 5753 5749 5744 5740 5736 5731 5727 5723 5718 5714 5710 5706 5702 5698 5694 5690 5686 5683 5679 5676 5673 5670
5800 5800 5799 5797 5796 5795 5793 5791 5788 5786 5784 5781 5778 5775 5772 5769 5765 5761 5757 5753 5749 5745 5741 5737 5732 5728 5723 5719 5715 5710 5706 5701 5697 5693 5689 5685 5681 5677 5673 5669 5666 5662 5659
5793 5793 5792 5790 5789 5788 5786 5784 5782 5779 5777 5774 5771 5768 5765 5762 5758 5754 5750 5746 5742 5738 5733 5729 5724 5720 5715 5711 5706 5702 5697 5692 5687 5683 5679 5675 5670 5666 5662 5658 5655 5651 5647
5786 5785 5785 5783 5782 5780 5779 5777 5774 5772 5770 5767 5764 5760 5757 5754 5751 5747 5743 5739 5734 5730 5725 5721 5716 5712 5707 5702 5697 5693 5688 5683 5678 5673 5669 5664 5660 5655 5651 5647 5643 5639 5634
5779 5778 5777 5776 5775 5773 5771 5769 5767 5765 5762 5760 5757 5753 5750 5746 5743 5739 5736 5731 5727 5722 5717 5712 5708 5703 5698 5693 5688 5683 5678 5673 5668 5663 5658 5653 5648 5643 5639 5634 5629 5625 5620
5771 5770 5770 5769 5767 5766 5764 5762 5760 5757 5755 5752 5749 5746 5742 5739 5735 5731 5727 5723 5719 5714 5709 5704 5699 5694 5689 5684 5678 5673 5668 5663 5657 5652 5646 5641 5636 5630 5625 5620 5615 5610 5605
5763 5762 5762 5761 5760 5758 5756 5754 5752 5750 5747 5744 5741 5738 5735 5731 5728 5723 5719 5715 5711 5706 5701 5695 5690 5684 5679 5674 5668 5663 5657 5651 5646 5640 5634 5628 5622 5616 5611 5605 5599 5593 5588
5755 5754 5754 5753 5752 5750 5748 5746 5744 5742 5739 5736 5733 5730 5727 5723 5719 5715 5711 5706 5702 5697 5692 5687 5681 5675 5669 5663 5658 5651 5645 5639 5633 5626 5620 5614 5607 5601 5595 5588 5582 5575 5569
5746 5746 5745 5745 5743 5742 5740 5738 5736 5734 5731 5728 5725 5722 5718 5715 5711 5706 5702 5697 5693 5688 5684 5677 5671 5665 5659 5652 5646 5639 5633 5626 5619 5612 5605 5599 5592 5585 5578 5571 5563 5556 5549
5738 5737 5737 5736 5735 5734 5732 5730 5728 5725 5723 5720 5717 5714 5710 5706 5702 5698 5693 5688 5683 5678 5673 5668 5661 5654 5648 5641 5634 5627 5620 5613 5605 5598 5590 5583 5575 5568 5560 5552 5544 5536 5529
5729 5729 5728 5727 5726 5725 5723 5722 5719 5717 5714 5712 5708 5705 5701 5697 5693 5689 5684 5679 5673 5668 5663 5657 5650 5643 5636 5629 5622 5614 5606 5598 5591 5583 5575 5566 5558 5550 5541 5533 5525 5517 5509
5720 5720 5720 5719 5718 5717 5715 5713 5711 5709 5706 5703 5700 5696 5693 5688 5684 5680 5675 5669 5664 5658 5652 5646 5639 5631 5624 5616 5608 5600 5592 5583 5575 5567 5558 5549 5540 5532 5523 5514 5506 5498 5490
5712 5711 5711 5710 5709 5708 5706 5704 5702 5700 5697 5694 5691 5687 5684 5679 5675 5670 5665 5659 5653 5647 5640 5634 5627 5619 5611 5603 5595 5587 5577 5568 5559 5550 5541 5532 5523 5514 5505 5496 5487 5479 5471
5703 5703 5702 5701 5700 5699 5698 5696 5694 5691 5688 5685 5682 5678 5675 5670 5666 5661 5655 5649 5643 5636 5629 5622 5615 5607 5599 5590 5581 5572 5563 5553 5544 5534 5525 5516 5506 5497 5488 5479 5470 5461 5453
5694 5694 5693 5693 5692 5690 5689 5687 5685 5682 5679 5677 5673 5669 5666 5661 5656 5651 5645 5639 5632 5626 5618 5611 5603 5594 5585 5576 5567 5557 5548 5538 5528 5519 5510 5500 5490 5481 5471 5462 5453 5444 5435
5685 5685 5685 5684 5683 5682 5680 5678 5676 5673 5671 5668 5664 5660 5656 5652 5647 5641 5635 5628 5622 5614 5606 5598 5590 5581 5572 5562 5552 5542 5533 5524 5515 5506 5496 5486 5475 5465 5455 5446 5437 5428 5420
5677 5676 5676 5675 5674 5673 5671 5669 5667 5665 5662 5659 5655 5651 5647 5642 5637 5631 5625 5618 5610 5602 5594 5586 5577 5567 5558 5549 5540 5530 5519 5509 5499 5490 5481 5472 5460 5450 5440 5431 5422 5414 5407
5668 5668 5667 5666 5665 5664 5662 5660 5658 5655 5653 5649 5646 5642 5637 5632 5627 5621 5614 5607 5599 5591 5582 5573 5564 5555 5545 5535 5526 5516 5506 5497 5487 5476 5466 5457 5447 5437 5427 5417 5409 5402 5395
5659 5659 5658 5657 5656 5655 5653 5651 5649 5646 5643 5640 5636 5632 5627 5622 5617 5611 5604 5596 5588 5579 5569 5560 5551 5542 5533 5523 5513 5504 5494 5484 5475 5464 5453 5443 5434 5424 5416 5407 5399 5392 5385
5650 5650 5649 5649 5647 5646 5644 5642 5640 5637 5634 5631 5627 5622 5618 5612 5606 5599 5592 5584 5576 5567 5558 5549 5540 5531 5521 5512 5502 5492 5481 5471 5461 5452 5441 5431 5421 5413 5406 5398 5389 5383 5377